[[{"header":{"parameterUnit":"m.s-1","parameterCategory":1,"la1":30.2991,"la2":30.254,"lo1":-89.0895,"lo2":-89.0444,"dy":0.0017,"dx":0.0017,"nx":28,"ny":28,"refTime":"2023-07-19T09:00:00:Z","depth":0,"parameterNumber":2,"parameterNumberName":"U-component_of_WINDS"},"data":[0,0,0,0,0,0,0,0,0,0,0,0,0,0,0,0,0,0,0,0,0,0,0,0,0,0,0,0,0,0,0,0,0,0,0,0,0,0,0,0,0,0,0,0,0,0,0,0,0,0,0,0,0,0,0,0,0,0,-0.5082,-0.5081,0,-0.5013,-0.5012,-0.5011,-0.4984,-0.4985,-0.4985,-0.4985,-0.4912,-0.491,-0.4908,0,0,0,0,0,0,0,0,0,0,0,0,0,-0.519,-0.5189,-0.5082,-0.5081,-0.508,-0.5013,-0.5012,-0.5011,-0.4984,-0.4985,-0.4985,-0.4985,-0.4913,-0.491,-0.4908,0,0,0,0,0,0,0,0,0,0,0,0,0,-0.5134,-0.5188,-0.5082,-0.5059,-0.5056,-0.5013,-0.5012,-0.5011,-0.4984,-0.4985,-0.4985,-0.4985,-0.4914,-0.491,-0.4907,-0.4882,0,0,-0.4898,-0.4896,0,0,0,0,0,0,0,0,-0.5138,-0.513,-0.5063,-0.506,-0.5057,-0.5008,-0.5023,-0.4967,-0.4984,-0.5011,-0.4985,-0.4985,-0.4943,-0.4938,-0.4924,-0.4878,-0.4875,-0.4897,-0.4895,-0.4894,-0.4893,0,0,0,0,0,0,0,-0.5142,-0.5133,-0.5055,-0.5062,-0.5059,-0.5052,-0.5044,-0.5013,-0.4977,-0.5009,-0.5007,-0.4999,-0.4942,-0.4927,-0.4922,-0.4874,-0.4897,-0.4895,-0.4893,-0.4891,-0.4805,-0.4805,0,0,0,0,0,0,-0.5149,-0.5137,-0.5057,-0.5053,-0.5099,-0.505,-0.5041,-0.5023,-0.4977,-0.497,-0.4999,-0.4998,-0.4933,-0.4926,-0.492,-0.4887,-0.4894,-0.4891,-0.4889,-0.4805,-0.4805,-0.4804,0,0,0,0,0,0,-0.5152,-0.5143,-0.506,-0.5094,-0.5083,-0.5047,-0.5028,-0.5022,-0.5007,-0.4969,-0.4963,-0.4991,-0.4933,-0.4924,-0.4892,-0.4884,-0.489,-0.4887,-0.4806,-0.4805,-0.4805,-0.4822,0,0,0,0,0,0,-0.5155,-0.5144,-0.5134,-0.5094,-0.5081,-0.5033,-0.5027,-0.502,-0.5002,-0.5,-0.496,-0.4953,-0.4932,-0.4897,-0.4889,-0.488,-0.4884,-0.4806,-0.4805,-0.4805,-0.4822,-0.4822,-0.4822,0,0,0,0,0,-0.5159,-0.5141,-0.5133,-0.5124,-0.5068,-0.5033,-0.5026,-0.5002,-0.5001,-0.4991,-0.4967,-0.4955,-0.4887,-0.4894,-0.4884,-0.4874,-0.4807,-0.4806,-0.4805,-0.4822,-0.4822,-0.4822,0,0,0,0,0,0,-0.5179,-0.5135,-0.5126,-0.5095,-0.5068,-0.5028,-0.5015,-0.5003,-0.4975,-0.4974,-0.4946,-0.4937,-0.4907,-0.4887,-0.4896,-0.4848,-0.4846,-0.4843,-0.4862,-0.4861,-0.4862,-0.4867,-0.4882,0,0,0,0,0,-0.518,-0.5156,-0.5118,-0.5094,-0.5081,-0.505,-0.5034,-0.5018,-0.4989,-0.4977,-0.4951,-0.4923,-0.4895,-0.4877,-0.4849,-0.4819,-0.481,-0.4808,-0.4808,-0.4808,-0.4806,-0.4789,-0.4788,-0.4802,-0.4802,-0.4802,0,0,-0.5182,-0.5155,-0.5141,-0.5097,-0.5075,-0.505,-0.5041,-0.5015,-0.4996,-0.4973,-0.4941,-0.4921,-0.4888,-0.4857,-0.4841,-0.4839,-0.48,-0.4807,-0.4808,-0.4805,-0.4788,-0.4787,-0.4786,-0.4801,-0.4801,-0.4801,0,0,-0.5172,-0.5149,-0.5126,-0.5104,-0.507,-0.505,-0.5045,-0.5007,-0.4993,-0.4961,-0.4944,-0.4921,-0.4874,-0.4851,-0.4833,-0.4816,-0.4804,-0.4808,-0.4808,-0.4792,-0.4791,-0.479,-0.4784,-0.4782,-0.4806,-0.4806,-0.4806,0,-0.5177,-0.5139,-0.5116,-0.5091,-0.5072,-0.5052,-0.5029,-0.5009,-0.4967,-0.4955,-0.4954,-0.4895,-0.4871,-0.4834,-0.483,-0.4816,-0.4809,-0.4812,-0.4793,-0.4792,-0.479,-0.4784,-0.4782,-0.4807,-0.4806,-0.4806,-0.4806,0,-0.5149,-0.5123,-0.5108,-0.507,-0.505,-0.5026,-0.4999,-0.4982,-0.4968,-0.4948,-0.4916,-0.4887,-0.4853,-0.4844,-0.483,-0.4805,-0.4805,-0.4799,-0.4796,-0.479,-0.4784,-0.4781,-0.4808,-0.4807,-0.4807,-0.4807,0,0,-0.5148,-0.5098,-0.5093,-0.5076,-0.5038,-0.5017,-0.4993,-0.4961,-0.4947,-0.4919,-0.4898,-0.4859,-0.4853,-0.4833,-0.4817,-0.4803,-0.4791,-0.4798,-0.4797,-0.4798,-0.4763,-0.4768,-0.4766,-0.4783,-0.4783,-0.4782,-0.4766,0,-0.5133,-0.5089,-0.5067,-0.5032,-0.5008,-0.4989,-0.4968,-0.4942,-0.4923,-0.49,-0.4879,-0.4852,-0.4846,-0.4834,-0.4819,-0.4796,-0.4784,-0.4797,-0.4763,-0.4762,-0.4772,-0.4762,-0.4767,-0.4753,-0.4763,-0.4763,-0.4762,0,-0.5109,-0.5083,-0.5046,-0.5011,-0.5,-0.4982,-0.4951,-0.4929,-0.49,-0.4887,-0.4865,-0.485,-0.4823,-0.4823,-0.4786,-0.4795,-0.478,-0.4767,-0.4766,-0.4761,-0.4762,-0.4757,-0.4748,-0.4746,-0.4758,-0.4759,-0.4759,0,-0.5113,-0.5068,-0.504,-0.5026,-0.4985,-0.4973,-0.4955,-0.4926,-0.4908,-0.4882,-0.487,-0.484,-0.4824,-0.4801,-0.4778,-0.478,-0.4743,-0.4741,-0.4732,-0.4732,-0.4724,-0.4725,-0.4712,-0.4715,-0.4715,-0.4715,-0.4715,0,-0.5098,-0.5076,-0.5042,-0.5024,-0.4999,-0.4975,-0.4951,-0.4932,-0.4907,-0.4885,-0.4867,-0.4847,-0.4818,-0.4794,-0.4776,-0.4748,-0.4741,-0.473,-0.4725,-0.4731,-0.4733,-0.4721,-0.4721,-0.4715,-0.4715,-0.4715,-0.4715,0,-0.5098,-0.5074,-0.5042,-0.5007,-0.4997,-0.498,-0.495,-0.4932,-0.4913,-0.4886,-0.4879,-0.4848,-0.482,-0.4795,-0.4757,-0.4744,-0.4716,-0.471,-0.4726,-0.4724,-0.4716,-0.4717,-0.4694,-0.469,-0.4697,-0.4697,-0.4697,0,-0.509,-0.5073,-0.5035,-0.502,-0.5003,-0.4979,-0.4961,-0.4937,-0.4919,-0.4885,-0.4872,-0.4843,-0.4818,-0.4773,-0.4747,-0.4719,-0.4712,-0.4706,-0.4707,-0.4714,-0.4712,-0.4713,-0.4711,-0.4706,-0.4706,-0.4706,-0.4706,0,-0.5078,-0.5067,-0.5043,-0.5014,-0.4994,-0.497,-0.4946,-0.4935,-0.4906,-0.4887,-0.4858,-0.4839,-0.4801,-0.4772,-0.4741,-0.4722,-0.4709,-0.4706,-0.4702,-0.4708,-0.4718,-0.4713,-0.4727,-0.4706,-0.4706,-0.4706,-0.4706,-0.4706,-0.5074,-0.5058,-0.5029,-0.5003,-0.4982,-0.496,-0.4943,-0.4922,-0.4897,-0.4865,-0.4852,-0.4823,-0.4795,-0.4751,-0.4733,-0.471,-0.4707,-0.4702,-0.47,-0.4699,-0.4701,-0.4723,-0.4704,-0.4704,-0.4704,-0.4704,-0.4704,0,-0.5061,-0.5042,-0.5018,-0.4985,-0.4965,-0.4955,-0.4928,-0.4911,-0.4886,-0.4861,-0.4838,-0.4805,-0.4777,-0.475,-0.472,-0.4707,-0.47,-0.47,-0.4701,-0.4697,-0.4705,-0.4711,-0.4706,-0.4706,-0.4706,-0.4706,-0.4706,-0.4706,-0.5052,-0.5025,-0.5011,-0.4974,-0.4955,-0.4927,-0.4912,-0.4892,-0.4872,-0.4836,-0.4814,-0.4796,-0.477,-0.4739,-0.4713,-0.4706,-0.4696,-0.4697,-0.4688,-0.4696,-0.4696,-0.4696,-0.4702,-0.4695,-0.4695,-0.4682,-0.4682,-0.4682]},{"header":{"parameterUnit":"m.s-1","parameterCategory":1,"la1":30.2991,"la2":30.254,"lo1":-89.0895,"lo2":-89.0444,"dy":0.0017,"dx":0.0017,"nx":28,"ny":28,"refTime":"2023-07-19T09:00:00:Z","depth":0,"parameterNumber":3,"parameterNumberName":"V-component_of_WINDS"},"data":[0,0,0,0,0,0,0,0,0,0,0,0,0,0,0,0,0,0,0,0,0,0,0,0,0,0,0,0,0,0,0,0,0,0,0,0,0,0,0,0,0,0,0,0,0,0,0,0,0,0,0,0,0,0,0,0,0,0,4.5757,4.5756,0,4.5624,4.5622,4.5621,4.5506,4.5505,4.5504,4.5502,4.5361,4.5358,4.5355,0,0,0,0,0,0,0,0,0,0,0,0,0,4.5908,4.5906,4.5757,4.5756,4.5754,4.5624,4.5622,4.562,4.5506,4.5505,4.5503,4.5502,4.5361,4.5358,4.5355,0,0,0,0,0,0,0,0,0,0,0,0,0,4.5815,4.5905,4.5758,4.5682,4.5673,4.5625,4.5622,4.562,4.5507,4.5505,4.5503,4.5501,4.5362,4.5359,4.5355,4.5369,0,0,4.5343,4.5341,0,0,0,0,0,0,0,0,4.5821,4.581,4.5694,4.5687,4.5677,4.558,4.5623,4.5536,4.5507,4.557,4.5502,4.55,4.5435,4.5425,4.5404,4.5362,4.5356,4.5343,4.534,4.5339,4.5337,0,0,0,0,0,0,0,4.5827,4.5815,4.5704,4.5693,4.5682,4.5652,4.5637,4.5606,4.5514,4.5564,4.5556,4.5542,4.543,4.5408,4.54,4.5354,4.5343,4.5339,4.5337,4.5335,4.5317,4.5319,0,0,0,0,0,0,4.5846,4.5821,4.5709,4.57,4.5746,4.5651,4.5634,4.5613,4.5514,4.5498,4.5543,4.5537,4.5415,4.5404,4.5394,4.5404,4.5339,4.5335,4.5333,4.5316,4.5318,4.532,0,0,0,0,0,0,4.585,4.5837,4.5714,4.5758,4.574,4.5651,4.5628,4.5611,4.5589,4.5499,4.5481,4.5538,4.5413,4.54,4.5376,4.5398,4.5333,4.533,4.5313,4.5316,4.5319,4.5425,0,0,0,0,0,0,4.5855,4.5839,4.5845,4.576,4.5739,4.57,4.5629,4.561,4.5584,4.5574,4.5489,4.5473,4.5411,4.5383,4.5373,4.5391,4.5327,4.5311,4.5315,4.5318,4.5419,4.5431,4.5441,0,0,0,0,0,4.5861,4.5879,4.5846,4.5833,4.5744,4.5702,4.569,4.5619,4.5586,4.559,4.5532,4.5476,4.5397,4.5382,4.5369,4.5387,4.5309,4.5314,4.5318,4.5414,4.5429,4.5441,0,0,0,0,0,0,4.5967,4.5866,4.5829,4.582,4.5771,4.5683,4.5686,4.5636,4.5594,4.5586,4.5498,4.548,4.5466,4.5424,4.5408,4.5395,4.5346,4.5348,4.5423,4.5436,4.5447,4.5458,4.5323,0,0,0,0,0,4.599,4.5966,4.5878,4.5879,4.5857,4.5776,4.5755,4.5705,4.5649,4.5627,4.5567,4.5514,4.5477,4.5454,4.5415,4.5413,4.5392,4.5418,4.543,4.5439,4.5442,4.5437,4.5447,4.5334,4.5334,4.5333,0,0,4.6037,4.5979,4.5968,4.59,4.5855,4.5831,4.5759,4.5736,4.5716,4.5623,4.5598,4.5552,4.5487,4.5474,4.5466,4.5438,4.5469,4.5444,4.5453,4.545,4.5442,4.5453,4.5463,4.5336,4.5336,4.5335,0,0,4.6109,4.6063,4.6059,4.6016,4.5951,4.5897,4.5897,4.5816,4.5783,4.5757,4.5686,4.5661,4.5599,4.5555,4.5525,4.5582,4.5529,4.5572,4.5629,4.5625,4.5634,4.5642,4.5662,4.567,4.5575,4.5575,4.5575,0,4.6174,4.6136,4.6062,4.6044,4.6016,4.5932,4.5926,4.5888,4.5813,4.5794,4.5766,4.5687,4.5637,4.5613,4.5627,4.5606,4.5601,4.5581,4.5639,4.5646,4.5652,4.567,4.5678,4.558,4.558,4.5579,4.5579,0,4.622,4.6194,4.6199,4.6131,4.6102,4.6091,4.6014,4.5994,4.5946,4.5895,4.5869,4.5807,4.5754,4.5744,4.5697,4.5714,4.5699,4.5656,4.5605,4.567,4.5685,4.5692,4.5588,4.5586,4.5585,4.5583,0,0,4.6354,4.6247,4.6249,4.6218,4.614,4.6118,4.6102,4.6052,4.6036,4.5987,4.5971,4.5921,4.5882,4.5847,4.5794,4.5791,4.584,4.5748,4.5745,4.5767,4.5854,4.5887,4.5896,4.5805,4.5806,4.5807,4.586,0,4.6414,4.6382,4.6316,4.6305,4.628,4.62,4.6186,4.6136,4.6088,4.6059,4.6005,4.5971,4.5921,4.59,4.5894,4.5836,4.5856,4.5831,4.5787,4.5787,4.5807,4.5904,4.5939,4.5992,4.5865,4.5866,4.5867,0,4.6478,4.6437,4.6424,4.6348,4.6335,4.6324,4.6273,4.6246,4.6188,4.6153,4.6116,4.6058,4.6035,4.5989,4.5956,4.5941,4.5919,4.5888,4.5888,4.5881,4.5831,4.59,4.6007,4.6015,4.5876,4.5875,4.5874,0,4.6578,4.6518,4.6503,4.6478,4.6389,4.6383,4.6345,4.6285,4.6259,4.6214,4.6197,4.6149,4.6123,4.6086,4.6017,4.599,4.5992,4.5939,4.5961,4.5963,4.5965,4.5965,4.607,4.5952,4.5951,4.5951,4.5951,0,4.6651,4.6646,4.6547,4.6537,4.6529,4.6452,4.6446,4.64,4.6347,4.6327,4.6254,4.6236,4.6145,4.6116,4.6061,4.6042,4.6031,4.6001,4.5986,4.6007,4.6011,4.5992,4.5986,4.5953,4.5953,4.5952,4.5952,0,4.6761,4.6694,4.6672,4.6591,4.657,4.6568,4.6497,4.6484,4.6432,4.6407,4.6396,4.6314,4.6276,4.6203,4.6144,4.6107,4.61,4.6075,4.6121,4.6112,4.6138,4.6137,4.6233,4.6242,4.6119,4.612,4.6121,0,4.6812,4.6807,4.6725,4.6707,4.6673,4.6644,4.6618,4.6542,4.6518,4.6451,4.6446,4.6403,4.6364,4.6307,4.6241,4.6195,4.6168,4.6205,4.6161,4.6182,4.6168,4.617,4.6169,4.6215,4.6217,4.6218,4.6219,0,4.6909,4.6877,4.6843,4.6799,4.677,4.6731,4.6687,4.6676,4.6589,4.6565,4.6526,4.6497,4.6437,4.6395,4.634,4.6299,4.6245,4.6234,4.6237,4.6258,4.6285,4.6271,4.6148,4.6232,4.6231,4.623,4.6229,4.6229,4.6991,4.6983,4.6925,4.6889,4.6849,4.681,4.6795,4.6742,4.6709,4.6656,4.6612,4.6577,4.6518,4.6439,4.6402,4.6372,4.6346,4.635,4.6351,4.6353,4.6362,4.6291,4.6362,4.6361,4.6361,4.636,4.636,0,4.7084,4.7044,4.7012,4.6955,4.6927,4.688,4.683,4.6809,4.678,4.673,4.6695,4.665,4.6609,4.654,4.6493,4.6483,4.6457,4.6473,4.6473,4.6464,4.6387,4.639,4.6495,4.6495,4.6495,4.6495,4.6495,4.6495,4.713,4.7114,4.7075,4.7038,4.6996,4.6963,4.6938,4.6901,4.6861,4.6816,4.6782,4.6738,4.668,4.6629,4.6588,4.6569,4.6555,4.6579,4.6552,4.6482,4.6469,4.6457,4.6459,4.6577,4.6577,4.6631,4.6632,4.6632]}]]